Carlsbad, NM

1:41 AM MDT on August 27, 2016 (GMT -0600)
Cavern City

Weather History for KCNM - October, 2012

Change the Weather History Date:

Tuesday, October 9, 2012

  Actual Average Record
Temperature  
Mean Temperature 67 °F -  
Max Temperature 89 °F 80 °F 92 °F (1965)
Min Temperature 45 °F 49 °F 35 °F (1970)
Cooling Degree Days 2    
Growing Degree Days 17 (Base 50)    
Moisture  
Dew Point 42 °F    
Average Humidity 54    
Maximum Humidity 93    
Minimum Humidity 12    
Precipitation  
Precipitation 0.00 in - - ()
Sea Level Pressure  
Sea Level Pressure 29.87 in    
Wind  
Wind Speed 4 mph (SW)    
Max Wind Speed 12 mph    
Max Gust Speed 18 mph    
Visibility 10 miles    
Events      
Averages and records for this station are not official NWS values.
T = Trace of Precipitation, MM = Missing Value Source: NWS Daily Summary

Daily Weather History Graph

Daily Weather History Graph

Search for Another Location

Airport or City:

Trip Planner

Search our weather history database for the weather conditions in past years. The results will help you decide how hot, cold, wet, or windy it might be!

Date:

Astronomy

Oct. 09, 2012 Rise Set
Actual Time 6:56 AM MDT 6:30 PM MDT
Civil Twilight 6:32 AM MDT 6:55 PM MDT
Nautical Twilight 6:03 AM MDT 7:23 PM MDT
Astronomical Twilight 5:35 AM MDT 7:52 PM MDT
Moon 12:55 AM MDT (10/9) 2:41 PM MDT (10/9)
Length of Visible Light 12h 23m
Length of Day
11h 34m
Last Quarter, 36% of the Moon is Illuminated
Oct 9
Last Quarter
Oct 15
New
Oct 21
First Quarter
Oct 29
Full
Nov 6
Last Quarter

Hourly Weather History & Observations

Time (MDT) Temp. Windchill Dew Point Humidity Pressure Visibility Wind Dir Wind Speed Gust Speed Precip Events Conditions
12:53 AM 52.0 °F - 46.9 °F 83% 29.87 in 10.0 mi SE 5.8 mph - N/A   Clear
1:53 AM 51.8 °F - 46.4 °F 82% 29.97 in 10.0 mi SSE 3.5 mph - N/A   Clear
2:53 AM 48.0 °F - 45.0 °F 89% 29.87 in 10.0 mi Calm Calm - N/A   Clear
3:53 AM 46.9 °F - 44.1 °F 90% 29.86 in 10.0 mi Calm Calm - N/A   Clear
4:53 AM 46.0 °F - 44.1 °F 93% 29.87 in 10.0 mi Calm Calm - N/A   Clear
5:53 AM 45.0 °F - 43.0 °F 93% 29.88 in 10.0 mi Calm Calm - N/A   Clear
6:53 AM 46.0 °F 42.5 °F 44.1 °F 93% 29.91 in 10.0 mi NNE 6.9 mph - N/A   Clear
7:53 AM 50.0 °F - 46.9 °F 89% 29.92 in 10.0 mi NNE 5.8 mph - N/A   Clear
8:53 AM 57.0 °F - 48.0 °F 72% 29.94 in 10.0 mi North 4.6 mph - N/A   Clear
9:53 AM 62.1 °F - 48.0 °F 60% 29.94 in 10.0 mi Calm Calm - N/A   Clear
10:53 AM 69.1 °F - 48.0 °F 47% 29.92 in 10.0 mi Calm Calm - N/A   Clear
11:53 AM 77.0 °F - 46.9 °F 34% 29.89 in 10.0 mi Calm Calm - N/A   Clear
12:53 PM 84.0 °F - 39.9 °F 21% 29.85 in 10.0 mi East 5.8 mph - N/A   Clear
1:53 PM 86.0 °F - 39.0 °F 19% 29.82 in 10.0 mi East 6.9 mph - N/A   Clear
2:53 PM 87.1 °F - 37.0 °F 17% 29.81 in 10.0 mi East 5.8 mph - N/A   Clear
3:53 PM 89.1 °F - 28.9 °F 12% 29.79 in 10.0 mi SSW 11.5 mph 18.4 mph N/A   Clear
4:53 PM 88.0 °F - 30.0 °F 12% 29.79 in 10.0 mi SW 10.4 mph - N/A   Clear
5:53 PM 82.9 °F - 37.0 °F 19% 29.80 in 10.0 mi SW 4.6 mph - N/A   Clear
6:53 PM 71.1 °F - 44.1 °F 38% 29.83 in 10.0 mi SW 8.1 mph - N/A   Clear
7:53 PM 66.0 °F - 42.1 °F 42% 29.86 in 10.0 mi SW 5.8 mph - N/A   Clear
8:53 PM 64.0 °F - 42.1 °F 45% 29.87 in 10.0 mi West 6.9 mph - N/A   Clear
9:53 PM 62.1 °F - 41.0 °F 46% 29.88 in 10.0 mi West 6.9 mph - N/A   Clear
10:53 PM 63.0 °F - 39.0 °F 41% 29.87 in 10.0 mi WSW 8.1 mph - N/A   Clear
11:53 PM 59.0 °F - 39.9 °F 49% 29.87 in 10.0 mi West 8.1 mph - N/A   Clear